x

9410840 - Santa Monica Pier (icac1) Weather Station

2:12 - Mon 23rd Jan 2017 All times are PST. -8 hours from GMT.

  • Wind
    17mph, 20mph gusts
  • Sea Temp 57°f
  • Luft Temp 52°f
  • Sea Pressure 1010.9mb
  • 9410840 - Santa Monica Pier
  • 9410840 - Santa Monica Pier

More Historic Weather Station data

Upgrade to MSW Pro to gain access to the past 30 days of data for over 8000 Wavebouys and Weather Stations around the globe.

Join Pro

Comparision Forecast

View Surf forecast
   
Mo 01/23 2:12 17 20 mph 1010.9mb 57f 52f
2:06 15 18 mph 1010.9mb 57f 52f
2:00 15 17 mph 1010.7mb 57f 52f
1:54 16 18 mph 1010.7mb 57f 52f
1:48 17 18 mph - - -
1:42 18 20 mph 1010.9mb 57f 52f
1:36 20 24 mph 1010.9mb 57f 52f
1:30 22 26 mph 1011mb 57f 52f
1:24 24 26 mph 1011.1mb 57f 52f
1:18 17 26 mph 1011.2mb 57f 51f
1:12 23 30 mph 1011.2mb 57f 51f
1:06 23 29 mph 1011.3mb 57f 52f
1:00 15 18 mph 1011.4mb 57f 53f
12:54 14 16 mph 1011.4mb 57f 53f
12:48 15 16 mph 1011.4mb 57f 53f
12:42 13 15 mph 1011.5mb 57f 52f
12:36 15 16 mph 1011.6mb 57f 53f
12:30 13 18 mph 1011.7mb 57f 52f
12:24 16 20 mph 1011.8mb 57f 52f
12:18 16 20 mph 1011.8mb 57f 52f
12:12 18 20 mph 1011.9mb 57f 52f
12:06 13 17 mph 1012.1mb 57f 52f
12:00 8 11 mph 1012.2mb 57f 52f
11:54 8 14 mph 1012.2mb 57f 52f
11:48 10 17 mph 1012.3mb 57f 52f
11:42 10 14 mph 1012.3mb 57f 53f
11:36 8 22 mph 1012.3mb 57f 53f
11:30 15 17 mph 1012.1mb 57f 54f
11:24 15 17 mph 1012.2mb 57f 54f
11:18 15 18 mph 1012.3mb 57f 54f
11:12 16 22 mph 1012.3mb 57f 54f
11:06 18 22 mph 1012.4mb 57f 54f
11:00 20 23 mph 1012.5mb 57f 54f
10:54 18 22 mph 1012.6mb 57f 54f
10:48 18 23 mph 1012.6mb 57f 54f
10:42 20 23 mph 1012.8mb 57f 54f
10:36 20 24 mph 1013mb 57f 54f
10:30 15 24 mph 1013mb 57f 53f
10:24 15 17 mph 1013.1mb 57f 54f
10:18 17 24 mph 1013.1mb 57f 54f
10:12 20 25 mph 1013.2mb 57f 54f
10:06 18 22 mph 1013.2mb 57f 55f
10:00 21 23 mph 1013.3mb 57f 54f
9:54 21 24 mph 1013.3mb 57f 54f
9:48 22 25 mph 1013.3mb 57f 55f
9:42 21 22 mph 1013.2mb 57f 55f
9:36 21 24 mph 1013.2mb 57f 55f
9:30 21 25 mph 1013.1mb 57f 55f
9:24 21 24 mph 1012.9mb 57f 55f
9:18 20 24 mph 1012.7mb 57f -
9:12 20 24 mph 1012.7mb 57f 55f
9:06 21 23 mph 1012.7mb 57f 55f
9:00 20 22 mph 1012.6mb 57f 55f
8:54 21 23 mph 1012.4mb 57f 55f
8:48 21 25 mph 1012.3mb 57f 55f
8:42 23 25 mph 1012.2mb 57f 56f
8:36 22 25 mph 1012.2mb 57f 56f
8:30 21 24 mph 1012.1mb 57f 56f
8:24 22 24 mph 1012.2mb 57f 55f
8:18 22 24 mph 1012.1mb 57f 55f
8:12 21 24 mph 1012.1mb 57f 55f
8:06 16 20 mph 1012mb 57f 55f
8:00 17 20 mph 1012mb 57f 55f
7:54 18 22 mph 1012mb 57f 55f
7:48 17 20 mph 1011.9mb 57f 55f
7:42 17 22 mph 1012mb 57f 55f
7:36 20 22 mph 1011.9mb 57f 55f
7:30 18 22 mph 1012mb 57f 55f
7:24 18 22 mph 1012.1mb 57f 56f
7:18 21 23 mph 1012.1mb 57f 55f
7:12 21 23 mph 1012.2mb 57f 56f
7:06 20 23 mph 1012.2mb 57f 56f
7:00 21 24 mph 1012.2mb 57f 55f
6:54 22 24 mph 1012.2mb 57f 56f
6:48 21 24 mph 1012.1mb 57f 56f
6:42 23 26 mph 1012.1mb 57f 56f
6:36 23 26 mph 1012mb 57f 56f
6:30 23 26 mph 1012mb 57f 56f
6:24 22 25 mph 1011.9mb 57f 56f
6:18 23 28 mph 1011.8mb 57f 56f
6:12 20 26 mph 1011.8mb 57f 56f
6:06 22 26 mph 1011.7mb 57f 56f
6:00 23 28 mph 1011.7mb 57f 56f
5:54 23 28 mph 1011.8mb 57f 56f
5:48 24 31 mph 1011.7mb 57f 56f
5:42 21 24 mph 1011.7mb 57f 56f
5:36 13 15 mph 1011.8mb 57f 54f
5:30 13 20 mph 1011.7mb 57f 54f
5:24 18 24 mph 1011.7mb 57f 55f
5:18 21 24 mph 1011.6mb 57f 56f
5:12 21 29 mph 1011.6mb 57f 56f
5:06 21 25 mph 1011.6mb 57f 56f
5:00 18 22 mph 1011.6mb 57f 56f
4:54 17 20 mph 1011.6mb 57f 56f
4:48 15 23 mph 1011.6mb 57f 55f
4:42 21 24 mph 1011.6mb 57f 55f
4:36 22 25 mph 1011.6mb 57f 56f
4:30 18 24 mph 1011.5mb 57f 56f
4:24 22 26 mph 1011.6mb 57f 56f
4:18 18 22 mph 1011.7mb 57f 56f
4:12 17 21 mph 1011.8mb 57f 55f
4:06 17 22 mph 1011.9mb 57f 54f
4:00 22 28 mph 1011.9mb 57f 54f
3:54 20 26 mph 1011.9mb 57f 56f
3:48 23 26 mph 1012mb 57f 56f
3:42 18 22 mph 1012mb 57f 56f
3:36 22 24 mph 1012mb 57f 56f
3:30 22 25 mph 1012.1mb 57f 56f
3:24 18 24 mph 1012.1mb 57f 56f
3:18 22 24 mph 1012mb 57f 56f
3:12 18 22 mph 1012.2mb 57f 56f
3:06 18 28 mph 1012.3mb 57f 55f
3:00 22 25 mph 1012.3mb 57f 55f
2:54 17 21 mph 1012.3mb 57f 56f
2:48 16 20 mph 1012.3mb 57f 56f
2:42 16 21 mph 1012.3mb 57f 56f
2:36 20 22 mph 1012.3mb 57f 56f
2:30 17 21 mph 1012.3mb 57f 56f
2:24 20 28 mph 1012.4mb 57f 55f
2:18 21 25 mph 1012.5mb 57f 56f
2:12 22 26 mph 1012.5mb 57f 57f
2:06 22 25 mph 1012.4mb 57f 56f
2:00 21 24 mph 1012.4mb 57f 56f
1:54 23 25 mph 1012.4mb 57f 56f
1:48 18 22 mph 1012.3mb 57f 56f
1:42 15 22 mph 1012.3mb 57f 56f
1:36 15 17 mph 1012.4mb 57f 56f
1:30 14 17 mph 1012.5mb 57f 56f
1:24 14 16 mph 1012.5mb 57f 56f
1:18 13 17 mph 1012.5mb 57f 56f
1:12 15 17 mph 1012.5mb 57f 56f
1:06 16 20 mph 1012.5mb 57f 55f
1:00 16 18 mph 1012.5mb 57f 55f
12:54 15 18 mph 1012.5mb 57f 56f
12:48 16 22 mph 1012.5mb 57f 56f
12:42 21 23 mph 1012.5mb 57f 56f
12:36 21 23 mph 1012.6mb 57f 55f
12:30 22 29 mph 1012.6mb 57f 55f
12:24 23 25 mph 1012.6mb 57f 56f
12:18 20 24 mph 1012.6mb 57f 57f
12:12 21 24 mph 1012.7mb 57f 57f
12:06 22 25 mph 1012.7mb 57f 57f
12:00 21 25 mph 1012.8mb 57f 57f
So 01/22 11:54 22 25 mph 1012.8mb 57f 56f
11:48 21 24 mph 1012.8mb 57f 56f
11:42 20 26 mph 1012.8mb 57f 56f
11:36 23 26 mph 1012.9mb 57f 56f
11:30 22 25 mph 1012.9mb 57f 56f
11:24 22 24 mph 1012.9mb 57f 56f
11:18 22 24 mph 1012.8mb 57f 56f
11:12 22 23 mph 1012.8mb 57f 56f
11:06 16 20 mph 1012.9mb 57f 56f
11:00 16 22 mph 1012.9mb 57f 56f
10:54 20 22 mph 1012.9mb 57f 55f
10:48 21 25 mph 1012.8mb 57f 55f
10:42 20 24 mph 1012.9mb 57f 55f
10:36 23 32 mph 1012.9mb 57f 54f
10:30 26 31 mph 1012.9mb 57f 56f
10:24 24 31 mph 1012.6mb 57f 57f
10:18 17 21 mph 1012.7mb 57f 57f
10:12 16 22 mph 1012.8mb 57f 57f
10:06 18 23 mph 1012.7mb 57f 57f
10:00 16 18 mph 1012.9mb 57f 57f
9:54 16 17 mph 1012.9mb 57f 57f
9:48 16 18 mph 1013mb 57f 56f
9:42 16 17 mph 1012.9mb - -
9:36 15 16 mph 1012.9mb - -
9:30 14 16 mph 1013mb 57f 56f
9:24 13 17 mph 1012.8mb 57f 56f
9:18 15 16 mph 1012.8mb 57f 56f
9:12 13 14 mph 1012.8mb 58f 56f
9:06 11 13 mph 1012.9mb 58f 56f
9:00 11 13 mph 1013mb 58f -
8:54 11 13 mph 1013mb 58f 56f
8:48 10
mph
1013mb 58f 56f
8:42 9 10 mph 1013mb 58f 56f
8:36 9 10 mph 1013.2mb 58f 56f
8:30 9 10 mph 1013.3mb 58f -
8:24 8 10 mph 1013.3mb 58f 56f
8:18 9 10 mph 1013.3mb 58f 56f
8:12 8 9 mph 1013.2mb 58f 56f
8:06 3 5 mph 1013.1mb 58f 56f
8:00 2 5 mph 1013mb 58f 56f
7:54 3 7 mph 1012.9mb 58f 56f
7:48 6
mph
1012.9mb 58f 55f
7:42 3 5 mph 1013mb 58f 55f
7:36 3 6 mph 1013.2mb 58f 54f
7:30 6 9 mph 1013.2mb 58f 54f
7:24 7 8 mph 1013.1mb 58f 54f
7:18 6 7 mph 1013.1mb 58f 54f
7:12 5 7 mph 1013.1mb 58f 54f
7:06 5 8 mph 1013mb 58f 53f
7:00 6 8 mph 1012.8mb 58f 53f
6:54 7 8 mph 1012.9mb 58f 54f
6:48 6 8 mph - - -
6:42 3 6 mph 1012.8mb 58f 54f
6:36 3 7 mph 1012.8mb 58f 53f
6:30 6 8 mph 1012.7mb 58f 53f
6:24 7 9 mph 1012.7mb 58f 53f
6:18 6 10 mph - - -
6:12 8 11 mph 1012.5mb 58f 53f
6:06 8 10 mph 1012.5mb 58f 53f
6:00 8 13 mph - 58f 53f
5:54 9 13 mph - 58f 53f
5:48 9 17 mph - - -
5:42 9 15 mph 1012.1mb 58f 53f
5:36 10 15 mph 1012.2mb 58f 53f
5:30 13 18 mph 1012.2mb 58f -
5:24 13 16 mph 1012.3mb 58f -
5:18 11 16 mph - - -
5:12 14 17 mph 1012.1mb 58f 52f
5:06 11 17 mph 1012.1mb 57f 52f
5:00 14 17 mph 1012mb 58f 52f
4:54 13 17 mph 1012.1mb 58f 52f
4:48 13 17 mph - - -
4:42 15 17 mph 1012.5mb 57f 52f
4:36 10 18 mph 1012.5mb 58f 52f
4:30 13 16 mph 1012.2mb 58f 52f
4:24 11 18 mph 1012.2mb 58f 52f
4:18 13 17 mph - - -
4:12 16 18 mph 1012.3mb 58f 51f
4:06 11 17 mph 1012.5mb 58f 52f
4:00 14 18 mph 1012.4mb 58f 52f
3:54 10 17 mph 1012.4mb 58f 52f
3:48 11 15 mph - - -
3:42 10 20 mph 1012.6mb 58f -
3:36 14 18 mph 1012.3mb 58f -
3:30 14 21 mph 1012.3mb 58f 52f
3:24 13 17 mph 1012.3mb 58f 52f
3:18 20 24 mph - - -
3:12 15 28 mph 1012.3mb 58f 51f
3:06 22 29 mph 1012.2mb 58f 51f
3:00 18 25 mph 1012.4mb 58f 51f
2:54 21 25 mph 1012.7mb 58f 51f
2:48 18 29 mph - - -
2:42 17 25 mph - 58f 51f
2:36 22 28 mph - 58f 51f
2:30 18 26 mph 1013mb 58f 51f
2:24 23 29 mph 1012.8mb 58f 51f
2:18 22 31 mph 1012.9mb 58f 51f
2:12 20 24 mph 1013.1mb 58f 51f
2:06 18 26 mph 1013.1mb 58f 51f
2:00 20 24 mph 1013.2mb 58f 51f
1:54 20 29 mph 1013.4mb 58f 51f
1:48 18 28 mph - - -
1:42 22 29 mph 1013.7mb 58f 50f
1:36 18 24 mph 1014mb 58f 51f
1:30 17 29 mph 1013.9mb 58f 51f
1:24 17 30 mph 1013.7mb 58f 51f
1:18 17 26 mph 1013.9mb 58f 51f
1:12 18 26 mph 1014.2mb 58f 51f
1:06 20 25 mph 1014.2mb 58f 51f
1:00 17 28 mph 1014.5mb 58f 51f
12:54 15 25 mph 1014.8mb 58f 51f
12:48 15 22 mph 1015.1mb 58f 51f
12:42 17 22 mph 1015.4mb 58f 51f
12:36 18 23 mph 1015.3mb 58f 50f
12:30 18 28 mph 1015.3mb 58f 50f
12:24 18 25 mph 1015.6mb 58f 50f
12:18 20 23 mph 1015.8mb 58f 51f
12:12 18 26 mph 1016.1mb 58f 50f
12:06 18 26 mph 1016.4mb 58f 50f
12:00 16 25 mph 1016.5mb 58f 51f
11:54 17 26 mph 1016.7mb 58f 51f
11:48 21 28 mph 1016.9mb 58f 51f
11:42 17 25 mph 1016.8mb 58f 50f
11:36 17 23 mph 1017.3mb 58f 51f
11:30 17 23 mph 1017.8mb 58f 51f
11:24 23 28 mph 1017.5mb 58f 50f
11:18 16 26 mph 1017.8mb 58f 51f
11:12 21 28 mph 1017.7mb 58f 51f
11:06 20 26 mph 1017.9mb 58f 51f
11:00 18 26 mph 1018mb 58f 51f
10:54 18 25 mph 1017.8mb 58f 51f
10:48 20 24 mph 1018.1mb 58f 51f
10:42 16 24 mph 1018.6mb 58f 51f
10:36 16 28 mph 1018.8mb 58f 51f
10:24 17 25 mph 1019mb 58f 51f
10:18 16 22 mph 1019.4mb 58f 51f
10:12 21 28 mph 1019.5mb 58f 51f
10:06 17 23 mph 1019.6mb 58f 51f
10:00 14 22 mph 1019.2mb - -
9:54 16 22 mph 1019mb 58f 52f
9:48 18 23 mph 1019.1mb 58f 52f
9:42 15 20 mph 1019.2mb 58f 52f
9:36 16 22 mph 1019.8mb 58f 52f
9:30 18 22 mph 1019.4mb 58f 52f
9:24 17 22 mph 1019.3mb 58f 52f
9:18 14 22 mph 1019.4mb 58f 52f
9:12 17 21 mph 1019.1mb 58f 52f
9:06 14 18 mph 1019.1mb 58f 52f
9:00 13 18 mph 1019.1mb 58f 52f
8:54 15 18 mph 1019.2mb 58f 52f
8:48 14 20 mph 1019.4mb 58f 51f
8:42 13 17 mph 1019.6mb 58f 51f
8:36 13 20 mph 1019.7mb 58f 52f
8:30 11 18 mph 1019.6mb 58f 52f
8:24 15 20 mph 1019.6mb 58f 52f
8:18 14 18 mph 1019.3mb 58f 51f
8:12 11 18 mph 1019.4mb 58f 51f
8:06 14 18 mph 1019.2mb 58f 51f
8:00 14 17 mph 1019.2mb 58f 51f
7:54 13 16 mph 1019.3mb 58f 51f
7:48 11 14 mph 1019.4mb 58f 51f
7:42 10 14 mph 1019.3mb 58f 51f
7:36 9 11 mph 1019.5mb 58f 51f
7:30 9 14 mph 1019.3mb 58f 51f
7:24 11 15 mph 1019.1mb 58f 51f
7:18 13 18 mph 1019.1mb 58f 51f
7:12 11 16 mph 1019.1mb 58f 51f
7:06 11 15 mph 1018.9mb 58f 51f
7:00 13 17 mph 1019.3mb 58f 51f
6:54 14 18 mph 1018.9mb 58f 51f
6:48 11 17 mph 1019mb 58f 51f
6:42 15 18 mph 1018.9mb 58f 51f
6:36 14 17 mph 1018.9mb 58f 51f
6:30 14 20 mph 1018.8mb 58f 51f
6:24 13 17 mph 1018.7mb 58f 51f
6:18 9 16 mph 1019mb 58f 51f
6:12 13 15 mph 1018.8mb 58f 51f
6:06 6 9 mph 1019mb 58f 51f
6:00 5 8 mph 1019.2mb 58f 51f
5:54 7 9 mph 1019.2mb 58f 51f
5:48 10 15 mph 1019mb 58f 52f
5:42 9 15 mph - 58f 52f
5:36 10 14 mph - 58f 52f
5:30 11 14 mph 1018.4mb 58f 52f
5:24 9 14 mph 1018.8mb 58f 52f
5:18 13 16 mph 1018.5mb 58f 52f
5:12 13 16 mph 1018.4mb 58f 53f
5:06 13 15 mph 1018.3mb 58f 52f
5:00 13 17 mph 1018.3mb 58f 52f
4:54 13 17 mph 1018.1mb 58f 52f
4:48 10 15 mph 1018.3mb 58f 53f
4:42 9 11 mph 1018.6mb 58f 53f
4:36 9 11 mph 1018.9mb 58f 53f
4:30 7 10 mph 1019.4mb 58f 53f
4:24 8 14 mph 1019mb 58f 53f
4:18 8 14 mph 1018.7mb 58f 52f
4:12 10 13 mph 1018.6mb 58f 53f
4:06 11 14 mph 1018.7mb 58f 52f
4:00 9 13 mph 1019mb 58f 52f
3:54 9 13 mph 1019.1mb 58f 52f
3:48 9 11 mph 1019.2mb 58f 53f
3:42 10 13 mph 1019.4mb 58f 53f
3:36 9 10 mph 1019.5mb 58f 53f
3:30 8 10 mph 1019.7mb 58f 53f
3:24 7 10 mph 1019.7mb 58f 53f
3:18 7 8 mph 1019.9mb 58f 53f
3:12 3 5 mph 1020.6mb 58f 53f
3:06 3 7 mph 1020.4mb 58f 53f
3:00 5 8 mph 1020mb 58f 53f
2:54 6 7 mph 1019.9mb 58f 53f
2:48 6 8 mph 1019.8mb 58f 53f
2:42 7 8 mph 1019.7mb 58f 53f
2:36 6 9 mph 1019.7mb 58f 53f
2:30 8 9 mph 1019.5mb 58f 53f
2:24 6 9 mph 1019.4mb 58f 53f
2:18 7 10 mph 1019.4mb 58f 53f
2:12 8 10 mph 1019.3mb 58f 54f
2:06 6 8 mph 1019.5mb 58f 54f
2:00 6 8 mph 1019.5mb 58f 54f
1:54 6 8 mph 1019.5mb 58f 54f
1:48 5 7 mph 1019.3mb 58f 54f
1:42 6
mph
1019.4mb 58f 54f
1:36 3 5 mph 1019.8mb 58f 55f
1:30 3 6 mph 1019.9mb 58f 55f
1:24 5 7 mph 1020mb 58f 55f
1:18 5 6 mph 1019.8mb 58f 55f
1:12 6 8 mph 1019.6mb 58f 55f
1:06 7
mph
1019.5mb 58f 55f
1:00 6 8 mph 1019.5mb 58f 55f
12:54 7 8 mph 1019.5mb 58f 55f
12:48 6 8 mph 1019.4mb 58f 55f
12:42 6 8 mph 1019.4mb 58f 55f
12:36 6 8 mph 1019.3mb 58f 55f
12:30 6 8 mph 1019.4mb 58f 55f
12:24 6 8 mph 1019.5mb 58f 55f
12:18 6 7 mph 1019.6mb 58f 56f
12:12 5 6 mph 1019.9mb 58f 56f
12:06 3 5 mph 1020.3mb 58f 56f
12:00 5 6 mph 1019.9mb 58f 56f
Sa 01/21 11:54 7 8 mph 1019.8mb 58f 56f
11:48 7 8 mph 1019.7mb 58f 56f
11:42 7 9 mph 1019.8mb 58f 56f
11:36 8 10 mph 1019.9mb 58f 56f
11:30 8 10 mph 1020.2mb 58f 56f
11:24 9 10 mph 1020.2mb 58f 56f
11:18 9 10 mph 1020.5mb 58f 57f
11:12 8 9 mph 1020.5mb 58f 57f
11:06 7 9 mph 1020.6mb 58f 57f
11:00 9 10 mph 1020.6mb 58f 57f
10:54 9 10 mph 1020.2mb 58f 57f
10:48 9 11 mph 1019.9mb 58f 57f
10:42 9 10 mph 1019.8mb 58f -
10:36 8 9 mph 1019.6mb 58f -
10:30 7 8 mph 1019.5mb 58f 57f
10:24 6 7 mph 1019.5mb 58f 56f
10:18 7 8 mph 1019.3mb 58f 56f
10:12 6 8 mph 1019.5mb 58f 56f
10:06 5 7 mph 1019.3mb 58f 56f
10:00 6 8 mph 1019.2mb 58f 56f
9:54 5 6 mph 1019.3mb 58f 56f
9:48 5 7 mph 1019.6mb 58f 56f
9:42 5 6 mph 1019.3mb 58f 56f
9:36 3 5 mph 1019.5mb 58f 56f
9:30 2 3 mph 1019.4mb 58f 56f
9:24 3 6 mph 1019.1mb 58f 56f
9:18 3 6 mph 1018.5mb 58f 56f
9:12 5 6 mph 1018.1mb 58f 56f
9:06 2 3 mph 1018.7mb 58f 56f
9:00 2 3 mph 1019mb 58f 56f
8:54 2
mph
1019.2mb 58f 56f
8:48 2 3 mph 1019.1mb 58f 56f
8:42 2 5 mph 1019.2mb 58f 56f
8:36 3 6 mph 1019.3mb 58f 56f
8:30 5 7 mph 1019.3mb 58f 56f
8:24 6 9 mph 1019.2mb 58f 56f
8:18 7 9 mph 1019.2mb 58f 56f
8:12 8
mph
1019.1mb 58f 56f
8:06 7 9 mph 1018.9mb 58f 56f
8:00 8 10 mph 1018.8mb 58f 56f
7:54 9 10 mph 1018.8mb 58f 56f
7:48 8 9 mph 1018.7mb 58f 56f
7:42 9 10 mph 1018.6mb 58f 56f
7:36 10
mph
1018.4mb 58f 56f
7:30 8 10 mph 1018.2mb 58f 56f
7:24 10 14 mph 1018.2mb 58f 57f
7:18 13 15 mph 1018.3mb 58f 57f
7:12 13 14 mph 1018.1mb 58f 57f
7:06 13 15 mph 1017.9mb 58f 56f
7:00 14 15 mph 1018mb 58f 56f
6:54 13 16 mph 1017.9mb 58f 57f
6:48 14 16 mph 1017.7mb 58f 57f
6:42 14 16 mph 1017.5mb 58f 56f
6:36 14 15 mph 1017.6mb 58f 57f
6:30 13 14 mph 1017.4mb - -
6:24 10 13 mph 1017.2mb 58f 56f
6:18 10 14 mph 1017.1mb 58f 57f
6:12 11 14 mph 1016.8mb 58f 56f
6:06 13 14 mph 1016.7mb 58f 56f
6:00 14 15 mph - - -
5:54 13 14 mph 1016.4mb 58f 56f
5:48 11 13 mph - - -
5:42 11 15 mph 1016.2mb 58f 57f
5:36 13 14 mph 1016.3mb 58f 56f
5:30 13 16 mph 1016.2mb - -
5:24 14 16 mph 1016.1mb 58f 56f
5:18 14 16 mph 1015.8mb 58f 57f
5:12 14 16 mph 1015.8mb 58f 56f
5:06 13 14 mph 1015.7mb 58f 57f
5:00 13 16 mph 1015.8mb - -
4:54 14 17 mph 1015.8mb 58f 57f
4:48 16 18 mph - - -
4:42 17 20 mph 1015.7mb 58f 57f
4:36 20 21 mph 1016.1mb 58f 57f
4:30 18 21 mph 1016mb 58f 57f
4:24 18 21 mph 1015.7mb 58f 57f
4:18 20 22 mph - - -
4:12 18 21 mph 1015.1mb 58f 56f
4:06 18 21 mph 1015mb 58f 56f
4:00 20 22 mph 1015.2mb 58f -
3:54 21 23 mph 1015.4mb 58f 56f
3:48 20 22 mph - - -
3:42 20 22 mph 1015.3mb 58f -
3:36 17 23 mph 1015mb 58f -
3:30 22 24 mph 1015.6mb 58f -
3:24 18 23 mph 1015.3mb 58f 56f
3:18 18 23 mph 1015.1mb 58f 56f
3:12 21 23 mph 1015mb 58f 56f
3:06 21 23 mph 1014.9mb 58f 56f
3:00 20 23 mph 1014.8mb 58f 56f
2:54 21 24 mph 1014.9mb 58f 56f
2:48 22 26 mph - - -
2:42 22 25 mph 1014.6mb 58f -
2:36 23 25 mph 1014.5mb 58f -
2:30 23 26 mph 1014.6mb 58f 56f
2:24 21 26 mph 1014.5mb 58f 56f
2:18 22 24 mph - - -
2:12 21 23 mph 1014.2mb 58f 56f
2:06 20 22 mph 1014mb 58f 56f
2:00 20 22 mph 1013.7mb 58f 56f
1:54 18 25 mph 1013.7mb 58f 56f
1:48 21 25 mph - - -
1:42 22 25 mph 1013.7mb 58f 56f
1:36 22 24 mph 1013.8mb 58f 56f
1:30 21 23 mph 1013.6mb 58f 56f
1:24 20 24 mph 1013.5mb 58f 56f
1:18 20 29 mph 1013.4mb 58f 56f
1:12 24 29 mph 1013.6mb 58f 56f
1:06 25 29 mph 1013.8mb 58f 56f
1:00 22 29 mph 1013.8mb 58f 56f
12:54 22 26 mph 1013.9mb 58f 56f
12:48 22 25 mph 1013.9mb 58f 56f
12:42 23 24 mph 1013.7mb 58f 56f
12:36 20 23 mph 1013.6mb 58f 56f
12:30 22 24 mph 1013.6mb 58f 56f
12:24 23 25 mph 1013.6mb 58f 56f
12:18 22 24 mph 1013.6mb 58f 56f
12:12 22 25 mph 1013.6mb 58f 56f
12:06 22 26 mph 1013.8mb 58f 56f
12:00 22 24 mph 1013.8mb 58f 56f
11:54 21 23 mph 1013.7mb 58f 56f
11:48 22 23 mph 1013.7mb 58f 56f
11:42 21 23 mph 1013.7mb 58f 56f
11:36 20 24 mph 1013.6mb 58f 56f
11:30 22 25 mph 1013.7mb 58f 56f
11:24 22 25 mph 1013.7mb 58f 55f
11:18 23 28 mph 1013.7mb 58f 56f
11:12 25 28 mph 1013.6mb 58f 55f
11:06 24 26 mph 1013.6mb 58f 55f
11:00 23 25 mph 1013.5mb 58f 56f
10:54 23 25 mph 1013.4mb 58f 56f
10:48 24 26 mph 1013.4mb 58f 55f
10:42 23 28 mph - 58f 55f
10:36 22 26 mph - 58f 55f
10:30 21 24 mph 1013.4mb 58f 55f
10:24 23 26 mph 1013.5mb 58f 55f
10:18 18 22 mph 1013.5mb 58f 55f
10:12 20 21 mph 1013.4mb 58f 55f
10:06 15 16 mph 1013.3mb 58f 55f
10:00 13 16 mph 1013.3mb 58f 55f
9:54 11 15 mph 1013.2mb 58f 55f
9:48 11 14 mph 1013.1mb 58f 55f
9:42 11 13 mph 1013mb 58f 55f
9:36 11 14 mph 1013mb 58f 55f
9:30 10 13 mph 1012.8mb 58f 55f
9:24 5 7 mph 1012.7mb 58f 55f
9:18 3 7 mph 1012.4mb 58f 55f
9:12 6 7 mph 1012.1mb 58f 55f
9:06 6 13 mph 1012.1mb 58f 54f
9:00 10 13 mph 1012.2mb 58f 54f
8:54 8 9 mph 1012.2mb 58f 54f
8:48 5 8 mph 1012mb 58f 54f
8:42 7 9 mph 1012mb 58f 53f
8:36 5 8 mph 1011.7mb 58f 54f
8:30 5 8 mph 1011.6mb 58f 53f
8:24 6 8 mph 1011.4mb 58f 53f
8:18 3 6 mph 1011.1mb 58f 53f
8:12 2 5 mph 1011.1mb 58f 53f
8:06 5 6 mph 1011.2mb 58f 52f
8:00 3 7 mph 1011.2mb 58f 52f
7:54 6 8 mph 1011.1mb 58f 52f
7:48 6 10 mph 1010.6mb 58f 52f
7:42 8 10 mph 1010.4mb 58f 52f
7:36 7 9 mph 1010.4mb 58f 51f
7:30 7 9 mph 1010.3mb 58f 52f
7:24 6 8 mph 1010.2mb 58f 51f
7:18 5 9 mph 1010.2mb 58f 51f
7:12 6 9 mph 1010.2mb 58f 52f
7:06 7 9 mph 1010.1mb 58f 51f
7:00 6 8 mph 1009.9mb 58f 51f
6:54 7 9 mph 1009.6mb 58f 51f
6:48 9 13 mph 1009.5mb 58f 51f
6:42 9 13 mph 1009.5mb 58f 51f
6:36 9 11 mph 1009.2mb 58f 51f
6:30 7 10 mph 1008.9mb 58f 51f
6:24 9 10 mph 1008.7mb 58f 51f
6:18 9 10 mph 1008.6mb 58f -
6:12 7 10 mph 1008.6mb 58f 51f
6:06 10 11 mph 1008.4mb 58f 51f
6:00 8 11 mph 1008.4mb 58f 52f
5:54 9 13 mph 1008.4mb 58f 51f
5:48 9 11 mph 1008.3mb 58f 51f
5:42 7 10 mph 1008.1mb 58f 51f
5:36 9 13 mph 1008mb 58f 52f
5:30 9 13 mph 1007.7mb 58f 52f
5:24 7 11 mph 1007.5mb 58f 51f
5:18 7 9 mph 1007.3mb 58f 51f
5:12 7 10 mph 1007mb 58f 51f
5:06 9 11 mph 1006.9mb 58f 51f
5:00 9 10 mph 1006.7mb 58f 51f
4:54 7 10 mph 1006.8mb 58f 51f
4:48 6 10 mph 1006.6mb 57f 51f
4:42 9 15 mph 1006.7mb 58f 52f
4:36 14 17 mph 1006.6mb 58f 53f
4:30 15 18 mph 1006.7mb 58f 53f
4:24 7 20 mph 1006.6mb 58f 52f
4:18 15 20 mph 1006.5mb 58f 53f
4:12 17 21 mph 1006.3mb 58f 53f
4:06 14 17 mph 1006.3mb 58f 53f
4:00 15 18 mph 1006.2mb 58f 53f
3:54 14 18 mph 1006.1mb 58f 54f
3:48 13 16 mph 1005.9mb 58f 54f
3:42 14 16 mph 1005.8mb 58f 54f
3:36 14 17 mph 1005.6mb 58f 54f
3:30 11 16 mph 1005.5mb 58f 54f
3:24 10 14 mph 1005.4mb 58f 53f
3:18 10 15 mph 1005.3mb 58f 53f
3:12 13 16 mph 1005.2mb 58f 53f
3:06 10 15 mph 1005mb 58f 53f
3:00 9 14 mph 1005mb 58f 53f
2:54 9 14 mph 1004.9mb 57f 54f
2:48 8 13 mph 1004.8mb 58f 53f
2:42 7 10 mph 1004.7mb 58f 53f
2:36 8 10 mph 1004.7mb 58f 53f
2:30 5 8 mph 1004.6mb 58f 53f
2:24 7 10 mph 1004.5mb 58f 53f
2:18 6 10 mph 1004.5mb 57f 53f
2:12 9 11 mph 1004.5mb 58f 53f
2:06 9 13 mph 1004.3mb 58f 53f
2:00 9 20 mph 1004.2mb 58f 53f
1:54 18 22 mph 1004.1mb 58f 54f
1:48 17 22 mph 1004mb 58f 54f
1:42 20 23 mph 1003.9mb 58f 54f
1:36 20 22 mph 1003.7mb 58f 54f
1:30 17 21 mph 1003.6mb 58f 54f
1:24 15 17 mph 1003.6mb 58f 54f
1:18 15 17 mph 1003.5mb 58f 54f
1:12 15 20 mph 1003.4mb 58f 54f
1:06 17 23 mph 1003.2mb 58f 54f
1:00 22 25 mph 1003.1mb 58f 54f
12:54 23 29 mph 1003.1mb 58f 54f
12:48 23 29 mph 1002.9mb 58f 54f
12:42 23 26 mph 1002.9mb 58f 54f
12:36 25 29 mph 1003mb 58f 54f
12:30 24 26 mph 1002.9mb 58f 54f
12:24 24 29 mph 1002.9mb 58f 54f
12:18 23 28 mph 1002.9mb 58f 54f
12:12 25 29 mph 1002.8mb 58f 54f
12:06 25 31 mph 1002.7mb 58f 54f
12:00 28 34 mph 1002.6mb 58f 54f
Fr 01/20 11:54 31 37 mph 1002.5mb 58f 54f
11:48 33 38 mph 1002.3mb 58f 54f
11:42 34 40 mph 1002mb 58f 54f
11:36 37 41 mph 1001.6mb 58f 54f
11:30 34 38 mph 1001.4mb 58f 54f
11:24 33 39 mph 1001.5mb 58f 55f
11:18 34 39 mph 1001.7mb 58f 55f
11:12 32 36 mph 1001.8mb 58f 55f
11:06 32 36 mph 1001.8mb 58f 55f
11:00 30 32 mph 1001.8mb 58f 55f
10:54 28 32 mph 1001.8mb 58f 55f
10:48 28 31 mph 1001.7mb 58f 55f
10:42 28 31 mph 1001.7mb 58f 55f
10:36 30 33 mph 1001.8mb 58f 55f
10:30 32 36 mph 1001.6mb 58f 55f
10:24 31 36 mph 1001.5mb 58f 55f
10:18 30 34 mph 1001.4mb 58f 55f
10:12 29 34 mph 1001.2mb 58f 55f
10:06 29 34 mph 1001.1mb 58f 55f
10:00 29 34 mph 1001.4mb 58f 55f
9:54 26 36 mph 1001.4mb 58f 56f
9:48 29 33 mph 1001.4mb 58f 55f
9:42 21 24 mph 1001.4mb 58f -
9:36 18 23 mph 1001.4mb 58f -
9:30 18 26 mph 1001.3mb 58f 55f
9:24 24 30 mph 1001.3mb 58f 55f
9:18 26 30 mph 1001.2mb 58f 55f
9:12 21 23 mph 1001.3mb 58f 55f
9:06 11 14 mph 1001.3mb 58f 55f
9:00 13 16 mph 1001.1mb 58f 55f
8:54 11 16 mph 1001mb 58f 55f
8:48 10 22 mph 1000.8mb 58f 55f
8:42 17 31 mph 1000.6mb 58f 55f
8:36 28 31 mph 1000.5mb 58f 55f
8:30 23 30 mph 1000.4mb 58f 56f
8:24 22 32 mph 1000.4mb 58f 55f
8:18 28 32 mph 1000.3mb 58f 56f
8:12 28 32 mph 1000.1mb 58f 56f
8:06 30 37 mph 999.9mb 58f 56f
8:00 31 36 mph 999.7mb 58f 56f
7:54 29 33 mph 999.5mb 58f 56f
7:48 29 33 mph - - -
7:42 29 34 mph 999.4mb 58f 56f
7:36 26 33 mph 999.3mb 58f 56f
7:30 29 34 mph 999.2mb 58f 56f
7:24 30 37 mph 999.3mb 58f 56f
7:18 31 36 mph 999.2mb 58f 56f
7:12 28 32 mph 999.3mb 58f 56f
7:06 28 31 mph 999.2mb 58f 56f
7:00 29 34 mph - - -
6:54 29 34 mph 999.2mb 58f 56f
6:48 30 37 mph - - -
6:42 31 37 mph 999mb 58f 55f
6:36 31 36 mph 998.8mb 58f 55f
6:30 31 36 mph - - -
6:24 30 37 mph 998.7mb 58f 56f
6:18 30 37 mph - - -
6:12 29 33 mph 998.4mb 58f 55f
6:06 30 36 mph 998.3mb 58f 55f
6:00 32 38 mph 998.3mb 58f -
5:54 32 38 mph 998.2mb 58f 55f
5:48 34 39 mph - - -
5:42 33 38 mph 998.1mb 58f 55f
5:36 28 36 mph 998.1mb 58f 55f
5:30 31 36 mph 998mb 58f 55f
5:24 31 37 mph 998mb 58f 55f
5:18 34 38 mph 998mb 58f 55f
5:12 32 38 mph 997.9mb 58f 55f
5:06 32 37 mph 997.8mb 58f 55f
5:00 30 38 mph 997.7mb 58f 56f
4:54 31 38 mph 997.8mb 58f 56f
4:48 33 38 mph - - -
4:42 29 33 mph - 58f 56f
4:36 25 30 mph - 58f 56f
4:30 25 30 mph 997.7mb 58f -
4:24 30 33 mph 997.7mb 58f 56f
4:18 30 33 mph 997.5mb 58f 56f
4:12 30 34 mph 997.5mb 58f 56f
4:06 31 36 mph 997.5mb 58f 56f
4:00 29 36 mph 997.4mb 58f 56f
3:54 30 34 mph 997.1mb 58f 56f
3:48 29 33 mph - - -
3:42 26 32 mph 997.3mb 58f 57f
3:36 29 33 mph 997.3mb 58f 56f
3:30 31 34 mph 997.4mb 58f 57f
3:24 30 37 mph 997.4mb 58f 57f
3:18 32 37 mph - - -
3:12 29 36 mph 997.3mb 58f 58f
3:06 28 32 mph 997.2mb 58f 58f
3:00 25 30 mph 997.2mb 58f 58f
2:54 25 29 mph 997mb 58f 58f
2:48 24 28 mph 996.9mb - -
2:42 24 29 mph 996.9mb 58f 58f
2:36 22 28 mph 996.8mb 58f 58f
2:30 25 29 mph 996.7mb 58f 58f
2:24 25 29 mph 996.8mb 58f 58f
2:18 26 32 mph 996.7mb 58f 58f
2:12 28 31 mph 996.8mb 58f 58f
2:06 25 30 mph 996.8mb 58f 57f
2:00 30 37 mph 997mb 58f -
1:54 28 31 mph 997.3mb 58f 57f
1:48 23 28 mph - - -
1:42 22 24 mph 997.4mb 58f 56f
1:36 22 25 mph 997.3mb 58f 57f
1:30 21 24 mph 997.3mb 58f 57f
1:24 21 28 mph 997.4mb 58f 57f
1:18 28 34 mph 997.4mb 58f 57f
1:12 18 24 mph 997.4mb 58f 57f
1:06 11 14 mph 997.6mb 58f 56f
1:00 10 14 mph 997.7mb 58f 55f
12:54 14 17 mph 997.8mb 58f 55f
12:48 15 17 mph 998mb 58f 54f
12:42 14 18 mph 998.3mb 58f 54f
12:36 14 20 mph 998.5mb 58f 54f
12:30 15 21 mph 998.7mb 58f 54f
12:24 18 24 mph 998.9mb 58f 54f
12:18 21 24 mph 999.1mb 58f 53f
12:12 18 29 mph 999mb 58f 55f
12:06 29 37 mph 999.5mb 58f 56f
12:00 18 29 mph 999.5mb 58f 53f
11:54 22 26 mph 999.1mb 58f 53f
11:48 20 25 mph 999mb 58f 52f
11:42 21 25 mph 999.4mb 58f 52f
11:36 20 29 mph 999.9mb 58f 52f
11:30 26 31 mph 999.9mb 58f 53f
11:24 29 34 mph 1000.1mb 58f 53f
11:18 28 36 mph 1000.5mb 58f 53f
11:12 28 37 mph 1000.9mb 58f 53f
11:06 33 38 mph 1001.4mb 58f 53f
11:00 29 36 mph 1001.6mb 58f 54f
10:54 25 32 mph 1001.9mb 58f 54f
10:48 30 33 mph 1002mb 58f 55f
10:42 25 29 mph 1002.2mb 58f 55f
10:36 18 23 mph 1002.3mb 58f 54f
10:30 16 25 mph 1002.5mb 58f 54f
10:24 15 22 mph 1003mb 58f 54f
10:18 16 22 mph 1003.1mb 58f 54f
10:12 15 21 mph 1003.3mb 58f 54f
10:06 15 22 mph 1003.7mb 58f 54f
10:00 20 23 mph 1004.1mb 58f 54f
9:54 16 20 mph 1004.1mb 58f 54f
9:48 15 20 mph 1004.2mb 58f 54f
9:42 14 24 mph 1004.3mb 58f 54f
9:36 21 25 mph 1004.2mb 58f 54f
9:30 24 28 mph 1004.6mb 58f 54f
9:24 23 26 mph 1004.9mb 58f 54f
9:18 22 24 mph 1004.7mb 58f 54f
9:12 21 24 mph 1005.2mb 58f 54f
9:06 22 23 mph 1005.3mb 58f 54f
9:00 22 24 mph 1005.4mb 58f 54f
8:54 21 23 mph 1005.6mb 58f 54f
8:48 20 21 mph 1005.9mb 58f 55f
8:42 20 22 mph 1005.8mb 58f 55f
8:36 18 22 mph 1005.7mb 58f 55f
8:30 16 18 mph 1005.8mb 58f 55f
8:24 17 21 mph 1006.3mb 58f 55f
8:18 20 22 mph 1006.5mb 58f 55f
8:12 20 21 mph 1006.2mb 58f 54f
8:06 18 21 mph 1006.1mb 58f 53f
8:00 1 5 mph 1006.3mb 58f 52f
7:54 1 7 mph 1006.3mb 58f 52f
7:48 7 9 mph 1006.3mb 58f 52f
7:42 6 8 mph 1006.7mb 58f 52f
7:36 7 11 mph 1006.6mb 58f 52f
7:30 9 15 mph 1006.7mb 58f 52f
7:24 14 15 mph 1006.9mb 58f 52f
7:18 13 16 mph 1007.1mb 58f 52f
7:12 9 11 mph 1007.4mb 58f 52f
7:06 7 11 mph 1007.4mb 58f 52f
7:00 10 13 mph 1007.6mb 59f 52f
6:54 11 13 mph 1007.8mb 59f 52f
6:48 8 10 mph 1008mb 59f 52f
6:42 9 11 mph 1007.8mb 59f 52f
6:36 9 11 mph 1007.8mb 59f 52f
6:30 9 10 mph 1008mb 59f 52f
6:24 8 11 mph 1007.8mb 59f 53f
6:18 8 11 mph 1007.8mb 59f 52f
6:12 8 9 mph 1007.6mb 59f 52f
6:06 6 7 mph 1007.9mb 59f 53f
6:00 7
mph
1008.1mb 59f 53f
5:54 3 6 mph 1008.4mb 59f 53f
5:48 3 5 mph 1008.4mb 59f 52f
5:42 5 6 mph 1008.3mb 59f 52f
5:36 5 8 mph 1008.4mb 59f 52f
5:30 5 7 mph 1008.6mb 59f 52f
5:24 7 9 mph 1009.1mb 59f 52f
5:18 3 6 mph 1009.1mb 59f 52f
5:12 3 6 mph 1009mb 59f 52f
5:06 1 3 mph 1009.1mb 59f 52f
5:00 2 5 mph 1008.9mb 59f 52f
4:54 6 8 mph 1008.8mb 59f 53f
4:48 5 6 mph 1008.8mb 59f 53f
4:42 1 3 mph 1009mb 59f 53f
4:36 2 7 mph 1008.8mb 59f 52f
4:30 6 7 mph 1008.9mb 59f 52f
4:24 6 7 mph 1009mb 59f 53f
4:18 5 6 mph 1009.3mb 59f 53f
4:12 5 6 mph 1009.6mb 59f 53f
4:06 2
mph
1009.7mb 59f 53f
4:00 1 2 mph 1009.6mb 59f 53f
3:54  -  2 mph 1009.4mb 59f 53f
3:48  -  2 mph 1009.3mb 59f 53f
3:42 1 5 mph 1009.5mb 59f 53f
3:36 2 5 mph 1009.4mb 59f 53f
3:30 2 5 mph 1009.5mb 59f 53f
3:24 2 5 mph 1009.5mb 59f 53f
3:18 3 5 mph 1009.5mb 59f 53f
3:12 3 6 mph 1009.6mb 59f 53f
3:06 5 6 mph 1009.5mb 59f 53f
3:00 5 6 mph 1009.5mb 59f 53f
2:54 5
mph
1009.6mb 59f 53f
2:48 3 6 mph 1009.7mb 59f 53f
2:42 5 7 mph 1009.8mb 59f 53f
2:36 7 8 mph 1009.9mb 59f 53f
2:30 6 7 mph 1010.1mb 59f 53f
2:24 6 7 mph 1010.3mb 59f 53f
2:18 6 7 mph 1010.5mb 59f 53f
2:12 5 6 mph 1010.6mb 59f 53f
2:06 5
mph
1010.8mb 59f 53f
2:00 5
mph
1010.9mb 59f 53f
1:54 3 6 mph 1011.1mb 59f 53f
1:48 6
mph
1011.1mb 59f 53f
1:42 2 5 mph 1011.2mb 59f 54f
1:36 1 3 mph 1011.2mb 59f 54f
1:30 1 3 mph 1011.4mb 59f 54f
1:24 2 5 mph 1011.6mb 59f 54f
1:18 3 5 mph 1011.6mb 59f 53f
1:12 2 3 mph 1011.5mb 59f 54f
1:06 1 2 mph 1011.6mb 59f 53f
1:00 1 3 mph 1011.4mb 59f 54f
12:54 3 5 mph 1011.3mb 59f 54f
12:48 1 3 mph 1011mb 59f 54f
12:42 2 5 mph 1011.2mb 59f 54f
12:36 3 6 mph 1011.4mb 59f 54f
12:30 3 5 mph 1011.3mb 59f 54f
12:24 3 5 mph 1011.5mb 59f 55f
12:18 5 7 mph 1011.6mb 59f 55f
12:12 6
mph
1011.7mb 59f 55f
12:06 3 6 mph 1011.6mb 59f 55f
12:00 5 7 mph 1011.6mb 59f 55f
Do 01/19 11:54 6 8 mph 1011.6mb 59f 55f
11:48 6 10 mph 1011.6mb 59f 56f
11:42 8 9 mph 1011.5mb 59f 56f
11:36 8 9 mph 1011.5mb 59f 56f
11:30 8 9 mph 1011.5mb 59f 56f
11:24 6 10 mph 1011.4mb 59f 56f
11:18 8 9 mph 1011.4mb 59f 56f
11:12 7 10 mph 1011.5mb 59f 56f
11:06 9 15 mph 1011.8mb 59f 56f